HAIYANG 1D

Satellite information

Favourite Embed

Satellite Type and Status

PAYLOADIN ORBIT

Key statistics

Satellite HAIYANG 1D at a glance.

Uptime

2013

Days in orbit

Revolutions

≈ 14.3

Per day

Orbit

SSO

Sun Synchronous Orbit

Inclination

98.4

Latest

Satellite identification and parameters

Extended collection of information and parameters for HAIYANG 1D.

Object identification

Identified? True

Debris? False

Object name: HAIYANG 1D

International designator: 2020-036A

Object number (NORAD): 45721

Object ID (CCSDS): 45721

Country: PEOPLES REPUBLIC OF CHINA (PRC)

Current information (Y/N): Y

RCS size: LARGE

Orbital parameters

Period: 100.408 minutes

Inclination: 98.4365 deg

SMA: 7156.027 km

Apoapsis: 779.834 km

Periapsis: 775.951 km

RAAN: 287.2926 deg

Eccentricy: 0.00027134

Argument of periapsis: 13.8844 deg

Mean anomaly: 346.2415 deg

Mean motion: 14.34150653 rev/day

Mean motion (dot): 0.00000722 rev/day2

B* drag term: 0.00027312554 1/REarth

Two-line elements (TLE)

Creation date: Dec. 12, 2025, 10:14 a.m.

Reference frame: TEME

Reference center: EARTH

Epoch: Dec. 12, 2025, 8:22 a.m. UTC

TLE line 0: 0 HAIYANG 1D

TLE line 1: 1 45721U 20036A 25346.34895115 .00000722 00000-0 27313-3 0 9996

TLE line 2: 2 45721 98.4365 287.2926 0002713 13.8844 346.2415 14.34150653288198

Live tracking on map

Real-time ground track for satellite HAIYANG 1D.

In-orbit conjunctions

There are no conjunctions computed for HAIYANG 1D, at the moment. Check back to stay up to date, as we update our databases every day.

Go to all conjunctions

Associated space launch

Haiyang is a series of Chinese marine remote sensing satellites. Haiyang 1C is the follow-up of the Haiyang 1A and 1B satellites. It is intended for ocean monitoring and will be providing data on the temperature and dynamics of coastal waters and global oceans in China.

HAIYANG 1D was lifted into orbit during the mission ‘Long March 2C | Haiyang 1D’, on board a Long March 2 space rocket.

The launch took place on June 10, 2020, 6:31 p.m. from Launch Complex 9.

For more information about the launch, click the button.

Launch to space Long March 2C | Haiyang 1D
Long March 2C | Haiyang 1D

Agency: N/A

Status: Launch Successful

Launch date: June 10, 2020, 6:31 p.m. UTC

Rocket: Long March 2

Launch pad: Launch Complex 9

Location: Taiyuan Satellite Launch Center, People's Republic of China

...

Latest news about this satellite

News about space launch
Long March 2C lofts Haiyang-1D

News about space launch
China launches ocean monitoring satellite

News about space launch
China launches Haiyang-1D ocean observation satellite


Newsletter sign-up

Weekly statistics, charts and insights to help you stay on top of the space industry.